Regional Weather Roundup
Issued by NWS Charleston, SC

Current Version | Previous Version | Graphics & Text | Print | Product List | Glossary On
Versions: 1 2 3 4 5 6 7 8 9 10 11 12 13 14 15 16 17 18 19 20 21 22 23 24 25 26 27 28 29 30 31 32 33 34 35 36 37 38 39 40 41 42 43 44 45 46 47 48 49 50
000
ASUS42 KCHS 261512
RWRCHS

REGIONAL WEATHER ROUNDUP
NATIONAL WEATHER SERVICE CHARLESTON SC
1100 AM EDT SUN APR 26 2015

NOTE: "FAIR" INDICATES FEW OR NO CLOUDS BELOW 12,000 FEET WITH NO
SIGNIFICANT WEATHER AND/OR OBSTRUCTIONS TO VISIBILITY.

NOT ALL STATIONS ARE QUALITY CONTROLLED BY THE NATIONAL
WEATHER SERVICE. USE DATA WITH CAUTION...ESPECIALLY
DEWPOINT OBSERVATIONS.

SCZ027-030-031-034>040-042>050-261600-
...SOUTHEAST SOUTH CAROLINA...

CITY           SKY/WX    TMP DP  RH WIND       PRES   REMARKS
N CHARLESTON   MOSUNNY   75  65  70 W16       29.65S
WATERFRONT PRK NOT AVBL
MOUNT PLEASANT FAIR      75  66  73 MISG      29.64S
PINOPOLIS      NOT AVBL
MONCKS CORNER  FAIR      77  66  69 W7        29.64R
SUMMERVILLE    FAIR      73  66  78 SW9       29.65F
BEAUFORT MCAS  SUNNY     76  65  68 W12       29.67S
BEAUFORT ARPT  FAIR      77  68  73 W16       29.67S
HILTON HEAD IS SUNNY     77  68  73 W12G18    29.69R
WALTERBORO     MOSUNNY   73  64  73 W12       29.67R
ALLENDALE      FAIR      75  66  73 VRB7      29.67R

...SOUTHERN MIDLANDS AND PEE DEE...

CITY           SKY/WX    TMP DP  RH WIND       PRES   REMARKS
GEORGETOWN     NOT AVBL
KINGSTREE      NOT AVBL
ORANGEBURG     MOSUNNY   75  64  68 W10       29.64S
BARNWELL       PTSUNNY   75  66  73 W13       29.67S
AIKEN          FAIR      75  61  60 W9        29.68S
MANNING        PTSUNNY   73  52  46 W13       29.63S
COLUMBIA       SUNNY     78  63  59 W10       29.62S
SUMTER         MOSUNNY   75  65  70 W9        29.61S
FLORENCE       CLOUDY    58  55  90 N10       29.65R FOG
MYRTLE BEACH   CLOUDY    73  63  68 NW12      29.63R
N MYRTLE BEACH CLOUDY    73  64  73 NW8G17    29.61R

$$

GAZ063-065-086>088-099>101-113>116-118-119-134>141-150-261600-
...SOUTHEAST GEORGIA...

CITY           SKY/WX    TMP DP  RH WIND       PRES   REMARKS
SAVANNAH ARPT  MOSUNNY   76  66  71 W13G18    29.69S
HUNTER AAF     MOSUNNY   78  69  74 W10       29.67S
FORT STEWART   MOSUNNY   77  67  71 W10       29.69R
STATESBORO       N/A     75  71  86 W10       29.69S
SYLVANIA       SUNNY     75  68  78 NW10      29.69S
CLAXTON        FAIR      73  68  83 W8        29.71S

...CSRA...CENTRAL AND FAR SOUTHEAST GEORGIA...

CITY           SKY/WX    TMP DP  RH WIND       PRES   REMARKS
THOMSON        MOSUNNY   76  69  79 SW8       29.72R
AUGUSTA-BUSH   MOSUNNY   74  65  73 W9        29.66S
AUGUSTA-DANIEL MOSUNNY   74  64  71 W10       29.67S
SWAINSBORO     NOT AVBL
VIDALIA        CLOUDY    73  68  83 W6        29.72F
EASTMAN        CLOUDY    73  71  92 SW8       29.76R
HAZLEHURST     FAIR      78  69  73 W6        29.72S
ALMA           SUNNY     78  66  66 W8        29.73S
WAYCROSS       SUNNY     83  69  63 W10G17    29.74S
JESUP          FAIR      81  70  69 NW12      29.72S
BAXLEY         FAIR      79  68  69 W9        29.72S
BRUNSWICK      SUNNY     79  64  61 W12G20    29.73S
SAINT SIMONS   SUNNY     79  66  64 W12       29.72S

$$

SCZ027-028-034-036>038-045-046-048>050-GAZ119-141-261600-
...LAKE AND SUPPLEMENTAL COASTAL OBSERVATIONS...

STATION/POSITION TIME  TEMP    WIND        PRES    WAVE   SWELL
                       AIR SEA DIR/SP/G            HT/PER HT/PER/DIR
                 (UTC) (F)     (DEG/KT/KT) (MB)    (FT/S) (FT/S/D)
UPR LAKE MARION  NOT AVBL
WINYAH BAY       NOT AVBL
LAKE MURRAY      1400   69     260/ 15/ 20 1002.7S
ACE BASIN NERRS  NOT AVBL
FORT PULASKI     1400   72 70  270/ 13/ 17 1005.5F
SAPELO ISLAND    1400   75     280/ 11     1006.0S

$$

ANZ835-935-AMZ111-154-330-350-352-354-370-450-454-472-261600-
...C-MAN AND BUOY OBSERVATIONS...

STATION/POSITION TIME  TEMP    WIND        PRES    WAVE   SWELL
                       AIR SEA DIR/SP/G            HT/PER HT/PER/DIR
                 (UTC) (F)     (DEG/KT/KT) (MB)    (FT/S) (FT/S/D)
BUOY 41004       1450   70 71  260/ 19/ 21 1003.0R   5/ 5   2/16
BUOY 41008       1450   71 69  250/ 10/ 12 1006.1S   3/ 5   2/150/ 5
FOLLY BEACH CMAN 1500   75     260/  9/ 13 1003.8R
CAPERS NEARSHORE 1408   71     300/ 16/ 17 1003.6R
FRIPP NEARSHORE  1400   71     270/ 16/ 19 1004.2R


STATION/POSITION TIME  TEMP    WIND        PRES    WAVE   SWELL
                       AIR SEA DIR/SP/G            HT/PER HT/PER/DIR
                 (UTC) (F)     (DEG/KT/KT) (MB)    (FT/S) (FT/S/D)
5E ST. MARYS GA  1421      69                N/A     2/ 3
FRYING PAN BUOY  1450   70 72  270/ 17/ 21 1002.5R   6/ 6   2/250/12
BUOY 41025       1450   60 73  360/ 16/ 17 1001.4R   4/ 7   3/ 90/ 7
CAPE LOOKOUT NC  1400   57      20/  9/ 11 1001.7F
BUOY 41002       1450   72 70  250/ 16/ 19 1002.9S   6/ 7   2/ 20/12
BUOY 41010       1420   79 79  260/ 19/ 23 1008.1R
ST AUGUSTINE FL  1500   82 68  290/ 12/ 15 1008.1R


$$



USA.gov is the U.S. government's official web portal to all federal, state and local government web resources and services.